Time,TemperatureF,DewpointF,PressureIn,WindDirection,WindDirectionDegrees,WindSpeedMPH,WindSpeedGustMPH,Humidity,HourlyPrecipIn,Conditions,Clouds,dailyrainin,SoftwareType,DateUTC
2013-04-27 00:00:00,45.5,25.4,30.26,NE,39,0.0,0.0,45,0.00,,---,0.00,VWS V14.01,2013-04-27 07:00:00,
2013-04-27 00:05:00,44.6,24.6,30.26,NE,35,0.0,0.0,45,0.00,,---,0.00,VWS V14.01,2013-04-27 07:05:00,
2013-04-27 00:11:00,44.4,25.2,30.26,NE,35,0.0,0.0,46,0.00,,---,0.00,VWS V14.01,2013-04-27 07:11:00,
2013-04-27 00:16:00,44.6,25.4,30.26,ENE,72,2.7,3.1,46,0.00,,---,0.00,VWS V14.01,2013-04-27 07:16:00,
2013-04-27 00:22:00,44.6,26.1,30.26,ENE,70,2.2,3.6,48,0.00,,---,0.00,VWS V14.01,2013-04-27 07:22:00,
2013-04-27 00:27:00,44.2,26.5,30.26,ENE,70,0.0,0.0,50,0.00,,---,0.00,VWS V14.01,2013-04-27 07:27:00,
2013-04-27 00:33:00,43.5,25.9,30.26,ENE,70,0.0,0.0,50,0.00,,---,0.00,VWS V14.01,2013-04-27 07:33:00,
2013-04-27 00:39:00,43.0,26.1,30.23,ENE,70,0.0,0.0,51,0.00,,---,0.00,VWS V14.01,2013-04-27 07:39:00,
2013-04-27 00:44:00,43.0,26.1,30.23,ENE,70,0.0,0.0,51,0.00,,---,0.00,VWS V14.01,2013-04-27 07:44:00,
2013-04-27 00:49:00,43.2,27.0,30.23,ENE,70,0.0,0.0,52,0.00,,---,0.00,VWS V14.01,2013-04-27 07:49:00,
2013-04-27 00:54:00,43.3,27.1,30.23,ENE,77,0.0,0.0,52,0.00,,---,0.00,VWS V14.01,2013-04-27 07:54:00,
2013-04-27 01:01:00,43.2,27.0,30.23,ENE,77,0.0,0.0,52,0.00,,---,0.00,VWS V14.01,2013-04-27 08:01:00,
2013-04-27 01:06:00,42.6,26.5,30.23,ENE,78,0.0,0.0,52,0.00,,---,0.00,VWS V14.01,2013-04-27 08:06:00,
2013-04-27 01:11:00,42.1,26.6,30.23,ENE,78,0.0,0.0,54,0.00,,---,0.00,VWS V14.01,2013-04-27 08:11:00,
2013-04-27 01:17:00,42.1,26.6,30.23,ENE,77,0.0,0.0,54,0.00,,---,0.00,VWS V14.01,2013-04-27 08:17:00,
2013-04-27 01:22:00,41.9,26.5,30.23,ENE,77,0.0,0.0,54,0.00,,---,0.00,VWS V14.01,2013-04-27 08:22:00,
2013-04-27 01:27:00,41.7,26.3,30.23,ENE,77,0.0,0.0,54,0.00,,---,0.00,VWS V14.01,2013-04-27 08:27:00,
2013-04-27 01:33:00,41.5,26.1,30.23,ENE,77,0.0,0.0,54,0.00,,---,0.00,VWS V14.01,2013-04-27 08:33:00,
2013-04-27 01:39:00,41.4,26.0,30.23,ENE,77,0.0,0.0,54,0.00,,---,0.00,VWS V14.01,2013-04-27 08:39:00,
2013-04-27 01:44:00,41.2,25.8,30.23,ENE,77,0.0,0.0,54,0.00,,---,0.00,VWS V14.01,2013-04-27 08:44:00,
2013-04-27 01:50:00,41.0,25.6,30.23,ENE,78,0.0,0.0,54,0.00,,---,0.00,VWS V14.01,2013-04-27 08:50:00,
2013-04-27 01:55:00,40.6,26.0,30.23,ENE,78,0.0,0.0,56,0.00,,---,0.00,VWS V14.01,2013-04-27 08:55:00,
2013-04-27 02:01:00,40.3,25.6,30.23,ENE,78,0.0,0.0,56,0.00,,---,0.00,VWS V14.01,2013-04-27 09:01:00,
2013-04-27 02:07:00,39.9,25.3,30.23,East,79,0.0,0.0,56,0.00,,---,0.00,VWS V14.01,2013-04-27 09:07:00,
2013-04-27 02:13:00,39.7,25.8,30.23,East,79,0.0,0.0,57,0.00,,---,0.00,VWS V14.01,2013-04-27 09:13:00,
2013-04-27 02:18:00,39.7,25.8,30.23,East,86,0.0,0.0,57,0.00,,---,0.00,VWS V14.01,2013-04-27 09:18:00,
2013-04-27 02:23:00,39.9,25.9,30.23,SSE,151,0.0,0.0,57,0.00,,---,0.00,VWS V14.01,2013-04-27 09:23:00,
2013-04-27 02:29:00,39.9,25.9,30.23,SSE,151,0.0,0.0,57,0.00,,---,0.00,VWS V14.01,2013-04-27 09:29:00,
2013-04-27 02:35:00,39.6,25.6,30.23,SSE,151,0.0,0.0,57,0.00,,---,0.00,VWS V14.01,2013-04-27 09:35:00,
2013-04-27 02:40:00,39.0,25.7,30.23,SSE,151,0.0,0.0,58,0.00,,---,0.00,VWS V14.01,2013-04-27 09:40:00,
2013-04-27 02:45:00,38.8,25.5,30.23,SSE,151,0.0,0.0,58,0.00,,---,0.00,VWS V14.01,2013-04-27 09:45:00,
2013-04-27 02:50:00,39.0,25.7,30.23,SSE,151,0.0,0.0,58,0.00,,---,0.00,VWS V14.01,2013-04-27 09:50:00,
2013-04-27 02:55:00,39.2,25.9,30.23,SSE,151,0.0,0.0,58,0.00,,---,0.00,VWS V14.01,2013-04-27 09:55:00,
2013-04-27 03:00:00,39.2,25.9,30.23,ESE,120,0.0,0.0,58,0.00,,---,0.00,VWS V14.01,2013-04-27 10:00:00,
2013-04-27 03:06:00,38.8,25.5,30.23,ESE,120,0.0,0.0,58,0.00,,---,0.00,VWS V14.01,2013-04-27 10:06:00,
2013-04-27 03:11:00,38.5,25.2,30.23,ESE,120,0.0,0.0,58,0.00,,---,0.00,VWS V14.01,2013-04-27 10:11:00,
2013-04-27 03:16:00,38.3,25.6,30.23,ESE,120,0.0,0.0,60,0.00,,---,0.00,VWS V14.01,2013-04-27 10:16:00,
2013-04-27 03:22:00,38.5,25.8,30.23,SE,124,0.0,0.0,60,0.00,,---,0.00,VWS V14.01,2013-04-27 10:22:00,
2013-04-27 03:28:00,38.7,26.0,30.23,SE,141,0.0,0.0,60,0.00,,---,0.00,VWS V14.01,2013-04-27 10:28:00,
2013-04-27 03:33:00,38.3,25.6,30.23,SE,141,0.0,0.0,60,0.00,,---,0.00,VWS V14.01,2013-04-27 10:33:00,
2013-04-27 03:39:00,37.9,25.3,30.23,SE,141,0.0,0.0,60,0.00,,---,0.00,VWS V14.01,2013-04-27 10:39:00,
2013-04-27 03:44:00,37.9,25.3,30.23,SE,141,0.0,0.0,60,0.00,,---,0.00,VWS V14.01,2013-04-27 10:44:00,
2013-04-27 03:49:00,38.1,25.5,30.23,SE,141,0.0,0.0,60,0.00,,---,0.00,VWS V14.01,2013-04-27 10:49:00,
2013-04-27 03:55:00,37.6,25.0,30.23,SE,141,0.0,0.0,60,0.00,,---,0.00,VWS V14.01,2013-04-27 10:55:00,
2013-04-27 04:00:00,37.2,24.6,30.23,SE,141,0.0,0.0,60,0.00,,---,0.00,VWS V14.01,2013-04-27 11:00:00,
2013-04-27 04:06:00,37.0,24.5,30.23,SE,141,0.0,0.0,60,0.00,,---,0.00,VWS V14.01,2013-04-27 11:06:00,
2013-04-27 04:11:00,37.0,24.5,30.23,SE,141,0.0,0.0,60,0.00,,---,0.00,VWS V14.01,2013-04-27 11:11:00,
2013-04-27 04:17:00,37.4,24.8,30.23,SE,141,0.0,0.0,60,0.00,,---,0.00,VWS V14.01,2013-04-27 11:17:00,
2013-04-27 04:22:00,37.2,24.6,30.23,SE,141,0.0,0.0,60,0.00,,---,0.00,VWS V14.01,2013-04-27 11:22:00,
2013-04-27 04:28:00,37.4,24.8,30.23,SE,141,0.0,0.0,60,0.00,,---,0.00,VWS V14.01,2013-04-27 11:28:00,
2013-04-27 04:33:00,37.4,24.8,30.23,SE,141,0.0,0.0,60,0.00,,---,0.00,VWS V14.01,2013-04-27 11:33:00,
2013-04-27 04:39:00,37.4,24.8,30.23,SE,141,0.0,0.0,60,0.00,,---,0.00,VWS V14.01,2013-04-27 11:39:00,
2013-04-27 04:45:00,37.2,24.6,30.23,SE,141,0.0,0.0,60,0.00,,---,0.00,VWS V14.01,2013-04-27 11:45:00,
2013-04-27 04:51:00,36.7,24.1,30.23,SE,141,0.0,0.0,60,0.00,,---,0.00,VWS V14.01,2013-04-27 11:51:00,
2013-04-27 04:56:00,36.7,24.1,30.23,SE,141,0.0,0.0,60,0.00,,---,0.00,VWS V14.01,2013-04-27 11:56:00,
2013-04-27 05:02:00,36.5,24.0,30.23,SE,141,0.0,0.0,60,0.00,,---,0.00,VWS V14.01,2013-04-27 12:02:00,
2013-04-27 05:07:00,36.3,23.8,30.23,SE,141,0.0,0.0,60,0.00,,---,0.00,VWS V14.01,2013-04-27 12:07:00,
2013-04-27 05:12:00,36.1,23.6,30.23,SE,141,0.0,0.0,60,0.00,,---,0.00,VWS V14.01,2013-04-27 12:12:00,
2013-04-27 05:18:00,36.1,23.6,30.23,SE,141,0.0,0.0,60,0.00,,---,0.00,VWS V14.01,2013-04-27 12:18:00,
2013-04-27 05:24:00,35.8,23.3,30.20,SE,141,0.0,0.0,60,0.00,,---,0.00,VWS V14.01,2013-04-27 12:24:00,
2013-04-27 05:30:00,35.6,23.1,30.20,SE,141,0.0,0.0,60,0.00,,---,0.00,VWS V14.01,2013-04-27 12:30:00,
2013-04-27 05:35:00,35.8,23.3,30.20,SE,141,0.0,0.0,60,0.00,,---,0.00,VWS V14.01,2013-04-27 12:35:00,
2013-04-27 05:41:00,35.8,23.3,30.23,SE,141,0.0,0.0,60,0.00,,---,0.00,VWS V14.01,2013-04-27 12:41:00,
2013-04-27 05:46:00,35.8,23.3,30.23,SE,141,0.0,0.0,60,0.00,,---,0.00,VWS V14.01,2013-04-27 12:46:00,
2013-04-27 05:51:00,35.8,23.3,30.23,SE,141,0.0,0.0,60,0.00,,---,0.00,VWS V14.01,2013-04-27 12:51:00,
2013-04-27 05:57:00,35.8,23.3,30.23,SE,141,0.0,0.0,60,0.00,,---,0.00,VWS V14.01,2013-04-27 12:57:00,
2013-04-27 06:02:00,35.8,23.3,30.23,SE,141,0.0,0.0,60,0.00,,---,0.00,VWS V14.01,2013-04-27 13:02:00,
2013-04-27 06:07:00,35.4,22.9,30.23,SE,141,0.0,0.0,60,0.00,,---,0.00,VWS V14.01,2013-04-27 13:07:00,
2013-04-27 06:13:00,35.2,22.8,30.23,SE,141,0.0,0.0,60,0.00,,---,0.00,VWS V14.01,2013-04-27 13:13:00,
2013-04-27 06:19:00,35.4,22.9,30.23,SE,138,0.0,0.0,60,0.00,,---,0.00,VWS V14.01,2013-04-27 13:19:00,
2013-04-27 06:25:00,35.4,22.9,30.23,SE,139,0.0,0.0,60,0.00,,---,0.00,VWS V14.01,2013-04-27 13:25:00,
2013-04-27 06:31:00,35.8,23.3,30.23,SE,139,0.0,0.0,60,0.00,,---,0.00,VWS V14.01,2013-04-27 13:31:00,
2013-04-27 06:36:00,36.1,23.6,30.23,SE,139,0.0,0.0,60,0.00,,---,0.00,VWS V14.01,2013-04-27 13:36:00,
2013-04-27 06:42:00,36.7,24.1,30.23,SE,139,0.0,0.0,60,0.00,,---,0.00,VWS V14.01,2013-04-27 13:42:00,
2013-04-27 06:48:00,37.6,25.0,30.23,South,169,0.0,0.0,60,0.00,,---,0.00,VWS V14.01,2013-04-27 13:48:00,
2013-04-27 06:53:00,38.5,25.8,30.23,South,169,0.0,0.0,60,0.00,,---,0.00,VWS V14.01,2013-04-27 13:53:00,
2013-04-27 06:59:00,39.7,26.4,30.23,ESE,116,0.0,0.0,58,0.00,,---,0.00,VWS V14.01,2013-04-27 13:59:00,
2013-04-27 07:05:00,41.0,27.6,30.23,ESE,116,0.0,0.0,58,0.00,,---,0.00,VWS V14.01,2013-04-27 14:05:00,
2013-04-27 07:11:00,42.6,29.1,30.23,ESE,116,0.0,0.0,58,0.00,,---,0.00,VWS V14.01,2013-04-27 14:11:00,
2013-04-27 07:16:00,44.1,29.8,30.23,ESE,116,0.0,0.0,57,0.00,,---,0.00,VWS V14.01,2013-04-27 14:16:00,
2013-04-27 07:22:00,45.9,31.5,30.23,NW,305,0.0,0.0,57,0.00,,---,0.00,VWS V14.01,2013-04-27 14:22:00,
2013-04-27 07:28:00,47.7,32.5,30.23,NW,305,0.0,0.0,56,0.00,,---,0.00,VWS V14.01,2013-04-27 14:28:00,
2013-04-27 07:33:00,49.3,34.0,30.23,NW,305,0.0,0.0,56,0.00,,---,0.00,VWS V14.01,2013-04-27 14:33:00,
2013-04-27 07:39:00,51.6,35.5,30.23,NW,305,0.0,0.0,54,0.00,,---,0.00,VWS V14.01,2013-04-27 14:39:00,
2013-04-27 07:44:00,53.6,35.9,30.23,NW,305,0.0,0.0,51,0.00,,---,0.00,VWS V14.01,2013-04-27 14:44:00,
2013-04-27 07:50:00,55.8,36.4,30.23,NW,304,0.0,0.0,48,0.00,,---,0.00,VWS V14.01,2013-04-27 14:50:00,
2013-04-27 07:56:00,57.2,36.1,30.23,NW,304,0.0,0.0,45,0.00,,---,0.00,VWS V14.01,2013-04-27 14:56:00,
2013-04-27 08:01:00,58.8,36.7,30.23,NW,304,0.0,0.0,44,0.00,,---,0.00,VWS V14.01,2013-04-27 15:01:00,
2013-04-27 08:06:00,60.4,36.3,30.23,NW,307,0.0,0.0,40,0.00,,---,0.00,VWS V14.01,2013-04-27 15:06:00,
2013-04-27 08:12:00,62.4,37.2,30.23,West,277,0.0,0.0,39,0.00,,---,0.00,VWS V14.01,2013-04-27 15:12:00,
2013-04-27 08:18:00,64.2,37.8,30.23,SSE,147,0.0,0.0,38,0.00,,---,0.00,VWS V14.01,2013-04-27 15:18:00,
2013-04-27 08:23:00,65.7,38.0,30.23,South,174,0.0,0.0,36,0.00,,---,0.00,VWS V14.01,2013-04-27 15:23:00,
2013-04-27 08:29:00,67.1,38.2,30.23,SSE,167,0.0,0.0,34,0.00,,---,0.00,VWS V14.01,2013-04-27 15:29:00,
2013-04-27 08:35:00,68.4,38.2,30.23,SSE,159,0.0,2.2,33,0.00,,---,0.00,VWS V14.01,2013-04-27 15:35:00,
2013-04-27 08:41:00,69.6,39.3,30.23,SE,146,0.0,0.0,33,0.00,,---,0.00,VWS V14.01,2013-04-27 15:41:00,
2013-04-27 08:46:00,70.9,36.6,30.23,SSE,163,0.0,0.0,28,0.00,,---,0.00,VWS V14.01,2013-04-27 15:46:00,
2013-04-27 08:51:00,72.3,37.9,30.23,South,183,0.0,0.0,28,0.00,,---,0.00,VWS V14.01,2013-04-27 15:51:00,
2013-04-27 08:57:00,74.3,35.2,30.23,SE,144,0.0,0.0,24,0.00,,---,0.00,VWS V14.01,2013-04-27 15:57:00,
2013-04-27 09:03:00,75.6,34.6,30.23,NW,304,5.4,5.4,22,0.00,,---,0.00,VWS V14.01,2013-04-27 16:03:00,
2013-04-27 09:08:00,76.5,35.4,30.23,West,265,5.4,7.6,22,0.00,,---,0.00,VWS V14.01,2013-04-27 16:08:00,
2013-04-27 09:14:00,76.8,35.7,30.23,NW,306,6.3,6.3,22,0.00,,---,0.00,VWS V14.01,2013-04-27 16:14:00,
2013-04-27 09:20:00,77.7,32.9,30.23,WNW,293,7.6,8.3,20,0.00,,---,0.00,VWS V14.01,2013-04-27 16:20:00,
2013-04-27 09:26:00,78.1,33.2,30.23,West,272,10.5,10.5,20,0.00,,---,0.00,VWS V14.01,2013-04-27 16:26:00,
2013-04-27 09:31:00,77.9,33.0,30.23,WNW,293,6.3,8.7,20,0.00,,---,0.00,VWS V14.01,2013-04-27 16:31:00,
2013-04-27 09:36:00,78.6,33.6,30.23,SW,216,8.3,10.5,20,0.00,,---,0.00,VWS V14.01,2013-04-27 16:36:00,
2013-04-27 09:41:00,79.2,32.0,30.23,WNW,294,6.3,8.7,18,0.00,,---,0.00,VWS V14.01,2013-04-27 16:41:00,
2013-04-27 09:47:00,79.5,32.3,30.23,West,279,6.3,8.7,18,0.00,,---,0.00,VWS V14.01,2013-04-27 16:47:00,
2013-04-27 09:53:00,79.9,32.6,30.23,WSW,248,8.3,10.1,18,0.00,,---,0.00,VWS V14.01,2013-04-27 16:53:00,
2013-04-27 09:58:00,80.4,38.7,30.23,WSW,248,15.0,15.0,22,0.00,,---,0.00,VWS V14.01,2013-04-27 16:58:00,
2013-04-27 10:04:00,80.8,37.2,30.23,SW,235,10.5,13.2,21,0.00,,---,0.00,VWS V14.01,2013-04-27 17:04:00,
2013-04-27 10:10:00,81.3,37.7,30.23,SW,227,11.4,11.4,21,0.00,,---,0.00,VWS V14.01,2013-04-27 17:10:00,
2013-04-27 10:15:00,81.9,38.1,30.23,WSW,252,8.3,11.0,21,0.00,,---,0.00,VWS V14.01,2013-04-27 17:15:00,
2013-04-27 10:21:00,81.9,38.1,30.23,West,260,10.5,11.4,21,0.00,,---,0.00,VWS V14.01,2013-04-27 17:21:00,
2013-04-27 10:26:00,81.3,37.7,30.23,West,264,11.4,11.4,21,0.00,,---,0.00,VWS V14.01,2013-04-27 17:26:00,
2013-04-27 10:32:00,81.0,37.4,30.23,NW,305,8.3,11.0,21,0.00,,---,0.00,VWS V14.01,2013-04-27 17:32:00,
2013-04-27 10:38:00,81.5,37.8,30.23,West,278,11.0,12.8,21,0.00,,---,0.00,VWS V14.01,2013-04-27 17:38:00,
2013-04-27 10:43:00,81.7,38.0,30.23,WSW,247,6.3,8.3,21,0.00,,---,0.00,VWS V14.01,2013-04-27 17:43:00,
2013-04-27 10:48:00,81.7,38.0,30.23,WSW,240,8.3,12.8,21,0.00,,---,0.00,VWS V14.01,2013-04-27 17:48:00,
2013-04-27 10:54:00,82.8,38.9,30.23,SW,222,12.3,12.3,21,0.00,,---,0.00,VWS V14.01,2013-04-27 17:54:00,
2013-04-27 11:00:00,83.3,39.3,30.23,SW,220,15.0,15.0,21,0.00,,---,0.00,VWS V14.01,2013-04-27 18:00:00,
2013-04-27 11:06:00,83.5,39.5,30.23,West,278,10.1,13.6,21,0.00,,---,0.00,VWS V14.01,2013-04-27 18:06:00,
2013-04-27 11:12:00,82.4,38.6,30.23,West,263,5.4,11.0,21,0.00,,---,0.00,VWS V14.01,2013-04-27 18:12:00,
2013-04-27 11:17:00,81.9,38.1,30.23,WNW,303,8.3,11.0,21,0.00,,---,0.00,VWS V14.01,2013-04-27 18:17:00,
2013-04-27 11:22:00,81.9,38.1,30.23,WNW,290,11.0,11.0,21,0.00,,---,0.00,VWS V14.01,2013-04-27 18:22:00,
2013-04-27 11:28:00,82.4,38.6,30.23,WNW,290,8.1,11.0,21,0.00,,---,0.00,VWS V14.01,2013-04-27 18:28:00,
2013-04-27 11:34:00,82.9,39.0,30.23,WSW,246,9.2,11.4,21,0.00,,---,0.00,VWS V14.01,2013-04-27 18:34:00,
2013-04-27 11:39:00,83.5,39.5,30.20,NW,314,8.7,15.0,21,0.00,,---,0.00,VWS V14.01,2013-04-27 18:39:00,
2013-04-27 11:45:00,82.6,38.7,30.20,West,261,10.5,12.8,21,0.00,,---,0.00,VWS V14.01,2013-04-27 18:45:00,
2013-04-27 11:51:00,83.3,39.3,30.20,WNW,296,4.0,7.6,21,0.00,,---,0.00,VWS V14.01,2013-04-27 18:51:00,
2013-04-27 11:56:00,83.5,39.5,30.20,NNW,341,7.6,10.1,21,0.00,,---,0.00,VWS V14.01,2013-04-27 18:56:00,
2013-04-27 12:02:00,83.7,39.6,30.20,NNW,330,12.3,12.3,21,0.00,,---,0.00,VWS V14.01,2013-04-27 19:02:00,
2013-04-27 12:08:00,82.8,38.9,30.20,NW,313,11.9,11.9,21,0.00,,---,0.00,VWS V14.01,2013-04-27 19:08:00,
2013-04-27 12:14:00,82.8,38.9,30.20,NNW,345,5.8,10.1,21,0.00,,---,0.00,VWS V14.01,2013-04-27 19:14:00,
2013-04-27 12:20:00,83.3,39.3,30.20,NW,307,3.6,8.1,21,0.00,,---,0.00,VWS V14.01,2013-04-27 19:20:00,
2013-04-27 12:26:00,84.4,38.3,30.20,North,357,6.7,8.3,20,0.00,,---,0.00,VWS V14.01,2013-04-27 19:26:00,
2013-04-27 12:32:00,84.4,38.3,30.20,NNW,331,3.1,6.3,20,0.00,,---,0.00,VWS V14.01,2013-04-27 19:32:00,
2013-04-27 12:37:00,84.9,38.8,30.20,West,264,3.1,8.1,20,0.00,,---,0.00,VWS V14.01,2013-04-27 19:37:00,
2013-04-27 12:43:00,86.2,39.8,30.20,ESE,116,3.1,8.7,20,0.00,,---,0.00,VWS V14.01,2013-04-27 19:43:00,
2013-04-27 12:48:00,86.4,40.0,30.20,West,278,5.4,11.0,20,0.00,,---,0.00,VWS V14.01,2013-04-27 19:48:00,
2013-04-27 12:54:00,84.6,38.5,30.20,NW,311,15.0,15.0,20,0.00,,---,0.00,VWS V14.01,2013-04-27 19:54:00,
2013-04-27 13:00:00,84.9,38.8,30.20,WSW,251,6.3,13.2,20,0.00,,---,0.00,VWS V14.01,2013-04-27 20:00:00,
2013-04-27 13:05:00,83.8,39.8,30.20,North,350,8.7,12.3,21,0.00,,---,0.00,VWS V14.01,2013-04-27 20:05:00,
2013-04-27 13:11:00,84.6,38.5,30.17,NW,311,8.1,10.1,20,0.00,,---,0.00,VWS V14.01,2013-04-27 20:11:00,
2013-04-27 13:17:00,84.6,38.5,30.17,NNW,329,11.0,11.9,20,0.00,,---,0.00,VWS V14.01,2013-04-27 20:17:00,
2013-04-27 13:23:00,84.9,38.8,30.17,WSW,254,11.9,13.2,20,0.00,,---,0.00,VWS V14.01,2013-04-27 20:23:00,
2013-04-27 13:29:00,84.4,38.3,30.17,WSW,257,15.4,17.0,20,0.00,,---,0.00,VWS V14.01,2013-04-27 20:29:00,
2013-04-27 13:35:00,85.5,39.2,30.17,WSW,256,10.5,13.2,20,0.00,,---,0.00,VWS V14.01,2013-04-27 20:35:00,
2013-04-27 13:40:00,85.1,38.9,30.17,West,262,11.0,11.0,20,0.00,,---,0.00,VWS V14.01,2013-04-27 20:40:00,
2013-04-27 13:46:00,84.2,38.2,30.17,NW,304,10.5,11.0,20,0.00,,---,0.00,VWS V14.01,2013-04-27 20:46:00,
2013-04-27 13:51:00,84.9,38.8,30.17,NW,318,9.2,10.5,20,0.00,,---,0.00,VWS V14.01,2013-04-27 20:51:00,
2013-04-27 13:57:00,84.6,38.5,30.17,West,261,10.1,10.1,20,0.00,,---,0.00,VWS V14.01,2013-04-27 20:57:00,
2013-04-27 14:02:00,85.1,38.9,30.17,West,261,13.2,15.0,20,0.00,,---,0.00,VWS V14.01,2013-04-27 21:02:00,
2013-04-27 14:07:00,84.9,38.8,30.17,West,267,10.1,13.2,20,0.00,,---,0.00,VWS V14.01,2013-04-27 21:07:00,
2013-04-27 14:12:00,84.4,38.3,30.17,West,274,12.8,12.8,20,0.00,,---,0.00,VWS V14.01,2013-04-27 21:12:00,
2013-04-27 14:18:00,85.1,38.9,30.17,West,262,6.3,12.8,20,0.00,,---,0.00,VWS V14.01,2013-04-27 21:18:00,
2013-04-27 14:23:00,84.2,38.2,30.17,NW,304,8.7,11.0,20,0.00,,---,0.00,VWS V14.01,2013-04-27 21:23:00,
2013-04-27 14:29:00,84.7,38.6,30.17,NW,317,12.3,12.3,20,0.00,,---,0.00,VWS V14.01,2013-04-27 21:29:00,
2013-04-27 14:34:00,85.1,38.9,30.17,WSW,243,13.2,13.2,20,0.00,,---,0.00,VWS V14.01,2013-04-27 21:34:00,
2013-04-27 14:40:00,84.0,39.9,30.14,NW,304,8.7,8.7,21,0.00,,---,0.00,VWS V14.01,2013-04-27 21:40:00,
2013-04-27 14:45:00,83.3,39.3,30.14,West,268,13.2,13.2,21,0.00,,---,0.00,VWS V14.01,2013-04-27 21:45:00,
2013-04-27 14:52:00,83.3,39.3,30.14,West,268,13.2,13.2,21,0.00,,---,0.00,VWS V14.01,2013-04-27 21:52:00,
2013-04-27 14:57:00,84.4,38.3,30.14,West,268,13.2,13.2,20,0.00,,---,0.00,VWS V14.01,2013-04-27 21:57:00,
2013-04-27 15:03:00,84.7,38.6,30.14,West,268,13.2,13.2,20,0.00,,---,0.00,VWS V14.01,2013-04-27 22:03:00,
2013-04-27 15:08:00,84.2,38.2,30.14,West,268,13.2,13.2,20,0.00,,---,0.00,VWS V14.01,2013-04-27 22:08:00,
2013-04-27 15:13:00,84.0,39.9,30.14,West,268,13.2,13.2,21,0.00,,---,0.00,VWS V14.01,2013-04-27 22:13:00,
2013-04-27 15:19:00,83.1,39.2,30.14,WNW,282,8.3,8.3,21,0.00,,---,0.00,VWS V14.01,2013-04-27 22:19:00,
2013-04-27 15:25:00,83.7,39.6,30.14,WNW,282,8.3,8.3,21,0.00,,---,0.00,VWS V14.01,2013-04-27 22:25:00,
2013-04-27 15:30:00,83.3,39.3,30.14,WNW,293,11.0,11.0,21,0.00,,---,0.00,VWS V14.01,2013-04-27 22:30:00,
2013-04-27 15:36:00,83.3,39.3,30.14,NW,319,12.8,12.8,21,0.00,,---,0.00,VWS V14.01,2013-04-27 22:36:00,
2013-04-27 15:41:00,82.8,38.9,30.14,NW,319,12.8,12.8,21,0.00,,---,0.00,VWS V14.01,2013-04-27 22:41:00,
2013-04-27 15:46:00,83.1,39.2,30.14,West,272,10.5,10.5,21,0.00,,---,0.00,VWS V14.01,2013-04-27 22:46:00,
2013-04-27 15:51:00,82.6,38.7,30.14,West,272,10.5,10.5,21,0.00,,---,0.00,VWS V14.01,2013-04-27 22:51:00,
2013-04-27 15:56:00,82.9,39.0,30.14,West,272,10.5,10.5,21,0.00,,---,0.00,VWS V14.01,2013-04-27 22:56:00,
2013-04-27 16:02:00,82.4,38.6,30.14,West,272,10.5,10.5,21,0.00,,---,0.00,VWS V14.01,2013-04-27 23:02:00,
2013-04-27 16:07:00,82.2,38.4,30.14,West,272,11.0,11.0,21,0.00,,---,0.00,VWS V14.01,2013-04-27 23:07:00,
2013-04-27 16:12:00,82.2,38.4,30.14,WNW,283,12.8,15.4,21,0.00,,---,0.00,VWS V14.01,2013-04-27 23:12:00,
2013-04-27 16:17:00,82.2,38.4,30.14,West,263,12.8,12.8,21,0.00,,---,0.00,VWS V14.01,2013-04-27 23:17:00,
2013-04-27 16:23:00,82.0,38.3,30.14,West,266,11.0,12.8,21,0.00,,---,0.00,VWS V14.01,2013-04-27 23:23:00,
2013-04-27 16:28:00,81.9,38.1,30.14,WSW,251,8.1,15.0,21,0.00,,---,0.00,VWS V14.01,2013-04-27 23:28:00,
2013-04-27 16:33:00,81.7,38.0,30.14,WSW,237,15.4,16.8,21,0.00,,---,0.00,VWS V14.01,2013-04-27 23:33:00,
2013-04-27 16:38:00,81.5,37.8,30.14,West,270,10.1,13.6,21,0.00,,---,0.00,VWS V14.01,2013-04-27 23:38:00,
2013-04-27 16:43:00,80.2,38.5,30.14,WNW,283,8.1,11.0,22,0.00,,---,0.00,VWS V14.01,2013-04-27 23:43:00,
2013-04-27 16:49:00,80.4,38.7,30.14,WNW,292,6.3,11.0,22,0.00,,---,0.00,VWS V14.01,2013-04-27 23:49:00,
2013-04-27 16:54:00,80.4,38.7,30.14,West,259,8.3,12.8,22,0.00,,---,0.00,VWS V14.01,2013-04-27 23:54:00,
2013-04-27 17:00:00,79.5,38.0,30.14,WNW,298,8.3,8.3,22,0.00,,---,0.00,VWS V14.01,2013-04-28 00:00:00,
2013-04-27 17:05:00,79.7,38.1,30.14,WNW,287,10.1,12.8,22,0.00,,---,0.00,VWS V14.01,2013-04-28 00:05:00,
2013-04-27 17:11:00,79.7,38.1,30.14,West,275,11.0,13.2,22,0.00,,---,0.00,VWS V14.01,2013-04-28 00:11:00,
2013-04-27 17:17:00,79.5,38.0,30.14,WSW,258,12.3,12.3,22,0.00,,---,0.00,VWS V14.01,2013-04-28 00:17:00,
2013-04-27 17:23:00,79.3,37.8,30.14,West,262,8.1,8.7,22,0.00,,---,0.00,VWS V14.01,2013-04-28 00:23:00,
2013-04-27 17:29:00,79.2,37.7,30.14,WSW,252,12.8,12.8,22,0.00,,---,0.00,VWS V14.01,2013-04-28 00:29:00,
2013-04-27 17:34:00,78.6,37.2,30.14,West,275,8.3,11.0,22,0.00,,---,0.00,VWS V14.01,2013-04-28 00:34:00,
2013-04-27 17:40:00,78.4,37.0,30.14,West,261,13.2,13.2,22,0.00,,---,0.00,VWS V14.01,2013-04-28 00:40:00,
2013-04-27 17:45:00,78.3,36.9,30.14,West,266,7.6,12.3,22,0.00,,---,0.00,VWS V14.01,2013-04-28 00:45:00,
2013-04-27 17:50:00,77.9,36.6,30.14,WNW,287,10.1,11.0,22,0.00,,---,0.00,VWS V14.01,2013-04-28 00:50:00,
2013-04-27 17:55:00,77.4,32.6,30.14,WNW,284,8.3,11.0,20,0.00,,---,0.00,VWS V14.01,2013-04-28 00:55:00,
2013-04-27 18:01:00,77.2,32.4,30.14,WSW,250,11.0,11.0,20,0.00,,---,0.00,VWS V14.01,2013-04-28 01:01:00,
2013-04-27 18:07:00,77.2,32.4,30.14,WSW,254,8.7,10.1,20,0.00,,---,0.00,VWS V14.01,2013-04-28 01:07:00,
2013-04-27 18:13:00,76.6,35.5,30.14,West,260,11.0,13.6,22,0.00,,---,0.00,VWS V14.01,2013-04-28 01:13:00,
2013-04-27 18:18:00,76.5,35.4,30.14,WSW,258,7.6,9.6,22,0.00,,---,0.00,VWS V14.01,2013-04-28 01:18:00,
2013-04-27 18:23:00,75.9,31.4,30.14,WNW,291,8.3,8.7,20,0.00,,---,0.00,VWS V14.01,2013-04-28 01:23:00,
2013-04-27 18:29:00,75.6,31.1,30.14,WSW,245,8.1,8.7,20,0.00,,---,0.00,VWS V14.01,2013-04-28 01:29:00,
2013-04-27 18:35:00,75.2,34.3,30.14,West,261,6.3,8.7,22,0.00,,---,0.00,VWS V14.01,2013-04-28 01:35:00,
2013-04-27 18:40:00,74.8,35.7,30.14,WSW,254,7.6,8.1,24,0.00,,---,0.00,VWS V14.01,2013-04-28 01:40:00,
2013-04-27 18:46:00,74.7,35.5,30.14,SW,235,8.1,8.1,24,0.00,,---,0.00,VWS V14.01,2013-04-28 01:46:00,
2013-04-27 18:52:00,74.5,35.4,30.14,SW,214,8.7,8.7,24,0.00,,---,0.00,VWS V14.01,2013-04-28 01:52:00,
2013-04-27 18:57:00,73.6,29.5,30.14,SW,216,6.3,8.3,20,0.00,,---,0.00,VWS V14.01,2013-04-28 01:57:00,
2013-04-27 19:03:00,73.0,30.8,30.14,SW,226,8.1,8.1,21,0.00,,---,0.00,VWS V14.01,2013-04-28 02:03:00,
2013-04-27 19:08:00,72.9,34.0,30.14,SW,227,5.8,6.3,24,0.00,,---,0.00,VWS V14.01,2013-04-28 02:08:00,
2013-04-27 19:13:00,72.5,33.7,30.14,SW,220,6.3,6.7,24,0.00,,---,0.00,VWS V14.01,2013-04-28 02:13:00,
2013-04-27 19:18:00,71.8,33.1,30.14,SSW,213,3.1,6.3,24,0.00,,---,0.00,VWS V14.01,2013-04-28 02:18:00,
2013-04-27 19:24:00,71.2,34.1,30.14,WNW,286,2.2,2.2,26,0.00,,---,0.00,VWS V14.01,2013-04-28 02:24:00,
2013-04-27 19:30:00,70.7,28.9,30.14,SSW,208,0.0,2.2,21,0.00,,---,0.00,VWS V14.01,2013-04-28 02:30:00,
2013-04-27 19:36:00,70.0,33.1,30.14,SSE,150,0.0,0.0,26,0.00,,---,0.00,VWS V14.01,2013-04-28 02:36:00,
2013-04-27 19:42:00,69.3,32.5,30.14,West,260,0.0,0.0,26,0.00,,---,0.00,VWS V14.01,2013-04-28 02:42:00,
2013-04-27 19:47:00,68.5,31.8,30.14,West,260,0.0,0.0,26,0.00,,---,0.00,VWS V14.01,2013-04-28 02:47:00,
2013-04-27 19:53:00,67.6,31.1,30.14,West,260,0.0,0.0,26,0.00,,---,0.00,VWS V14.01,2013-04-28 02:53:00,
2013-04-27 19:58:00,67.3,30.8,30.14,West,260,0.0,0.0,26,0.00,,---,0.00,VWS V14.01,2013-04-28 02:58:00,
2013-04-27 20:04:00,66.6,30.2,30.14,South,179,5.4,5.4,26,0.00,,---,0.00,VWS V14.01,2013-04-28 03:04:00,
2013-04-27 20:09:00,65.8,31.0,30.14,SSW,210,0.0,0.0,27,0.00,,---,0.00,VWS V14.01,2013-04-28 03:09:00,
2013-04-27 20:14:00,65.1,30.3,30.14,South,186,4.0,4.9,27,0.00,,---,0.00,VWS V14.01,2013-04-28 03:14:00,
2013-04-27 20:20:00,64.8,30.0,30.14,SSW,203,0.0,4.0,27,0.00,,---,0.00,VWS V14.01,2013-04-28 03:20:00,
2013-04-27 20:25:00,64.2,29.6,30.14,SSW,198,0.0,0.0,27,0.00,,---,0.00,VWS V14.01,2013-04-28 03:25:00,
2013-04-27 20:30:00,63.9,29.3,30.14,West,279,3.6,3.6,27,0.00,,---,0.00,VWS V14.01,2013-04-28 03:30:00,
2013-04-27 20:35:00,64.8,30.0,30.14,NW,324,5.8,7.6,27,0.00,,---,0.00,VWS V14.01,2013-04-28 03:35:00,
2013-04-27 20:40:00,65.5,30.6,30.14,NW,324,5.8,5.8,27,0.00,,---,0.00,VWS V14.01,2013-04-28 03:40:00,
2013-04-27 20:46:00,65.7,30.8,30.14,NW,324,5.8,5.8,27,0.00,,---,0.00,VWS V14.01,2013-04-28 03:46:00,
2013-04-27 20:51:00,65.1,30.3,30.14,SSE,158,3.6,3.6,27,0.00,,---,0.00,VWS V14.01,2013-04-28 03:51:00,
2013-04-27 20:57:00,63.5,26.1,30.14,SSE,158,0.0,0.0,24,0.00,,---,0.00,VWS V14.01,2013-04-28 03:57:00,
2013-04-27 21:01:00,63.1,25.8,30.14,SSW,192,3.1,4.0,24,0.00,,---,0.00,VWS V14.01,2013-04-28 04:01:00,
2013-04-27 21:02:00,63.1,25.8,30.14,SSW,194,4.0,4.0,24,0.00,,---,0.00,VWS V14.01,2013-04-28 04:02:00,
2013-04-27 21:03:00,63.0,25.6,30.14,SSW,202,4.0,4.0,24,0.00,,---,0.00,VWS V14.01,2013-04-28 04:03:00,
2013-04-27 21:04:00,63.0,25.6,30.14,SSW,205,3.6,4.0,24,0.00,,---,0.00,VWS V14.01,2013-04-28 04:04:00,
2013-04-27 21:09:00,62.6,25.3,30.14,SW,220,4.0,4.0,24,0.00,,---,0.00,VWS V14.01,2013-04-28 04:09:00,
2013-04-27 21:10:00,62.6,25.3,30.14,SW,223,2.7,4.0,24,0.00,,---,0.00,VWS V14.01,2013-04-28 04:10:00,
2013-04-27 21:16:00,62.2,25.0,30.14,WSW,240,3.1,5.4,24,0.00,,---,0.00,VWS V14.01,2013-04-28 04:16:00,
2013-04-27 21:22:00,62.6,25.3,30.14,North,357,3.1,4.5,24,0.00,,---,0.00,VWS V14.01,2013-04-28 04:22:00,
2013-04-27 21:27:00,62.1,24.9,30.17,ENE,59,2.7,5.4,24,0.00,,---,0.00,VWS V14.01,2013-04-28 04:27:00,
2013-04-27 21:32:00,62.6,25.3,30.17,West,262,3.1,3.6,24,0.00,,---,0.00,VWS V14.01,2013-04-28 04:32:00,
2013-04-27 21:37:00,62.2,25.0,30.17,NNW,348,4.0,4.0,24,0.00,,---,0.00,VWS V14.01,2013-04-28 04:37:00,
2013-04-27 21:43:00,60.8,23.8,30.17,North,11,4.0,4.9,24,0.00,,---,0.00,VWS V14.01,2013-04-28 04:43:00,
2013-04-27 21:49:00,59.4,24.0,30.17,NE,38,3.6,6.3,26,0.00,,---,0.00,VWS V14.01,2013-04-28 04:49:00,
2013-04-27 21:54:00,58.5,23.3,30.17,ENE,64,2.2,3.1,26,0.00,,---,0.00,VWS V14.01,2013-04-28 04:54:00,
2013-04-27 22:00:00,58.1,23.0,30.17,NE,51,0.0,0.0,26,0.00,,---,0.00,VWS V14.01,2013-04-28 05:00:00,
2013-04-27 22:05:00,57.6,22.5,30.17,NNW,331,0.0,0.0,26,0.00,,---,0.00,VWS V14.01,2013-04-28 05:05:00,
2013-04-27 22:11:00,56.8,21.9,30.17,NNE,29,0.0,0.0,26,0.00,,---,0.00,VWS V14.01,2013-04-28 05:11:00,
2013-04-27 22:16:00,56.5,21.6,30.17,ENE,78,3.6,3.6,26,0.00,,---,0.00,VWS V14.01,2013-04-28 05:16:00,
2013-04-27 22:22:00,56.7,21.7,30.17,ENE,63,0.0,2.7,26,0.00,,---,0.00,VWS V14.01,2013-04-28 05:22:00,
2013-04-27 22:27:00,56.1,21.3,30.17,West,276,0.0,0.0,26,0.00,,---,0.00,VWS V14.01,2013-04-28 05:27:00,
2013-04-27 22:33:00,55.2,21.8,30.17,SE,139,0.0,0.0,27,0.00,,---,0.00,VWS V14.01,2013-04-28 05:33:00,
2013-04-27 22:38:00,54.5,21.2,30.17,East,83,5.8,5.8,27,0.00,,---,0.00,VWS V14.01,2013-04-28 05:38:00,
2013-04-27 22:44:00,54.3,23.6,30.17,SE,135,2.2,3.6,30,0.00,,---,0.00,VWS V14.01,2013-04-28 05:44:00,
2013-04-27 22:50:00,53.2,23.8,30.17,South,172,0.0,3.1,32,0.00,,---,0.00,VWS V14.01,2013-04-28 05:50:00,
2013-04-27 22:56:00,52.2,22.8,30.14,SW,229,0.0,4.5,32,0.00,,---,0.00,VWS V14.01,2013-04-28 05:56:00,
2013-04-27 23:02:00,51.3,22.0,30.14,ESE,112,5.4,5.4,32,0.00,,---,0.00,VWS V14.01,2013-04-28 06:02:00,
2013-04-27 23:08:00,51.1,21.9,30.14,SSE,161,0.0,0.0,32,0.00,,---,0.00,VWS V14.01,2013-04-28 06:08:00,
2013-04-27 23:13:00,51.3,22.0,30.14,ESE,102,0.0,0.0,32,0.00,,---,0.00,VWS V14.01,2013-04-28 06:13:00,
2013-04-27 23:19:00,50.5,21.4,30.14,NNW,338,0.0,4.0,32,0.00,,---,0.00,VWS V14.01,2013-04-28 06:19:00,
2013-04-27 23:24:00,50.0,21.0,30.14,North,0,0.0,0.0,32,0.00,,---,0.00,VWS V14.01,2013-04-28 06:24:00,
2013-04-27 23:29:00,49.6,20.6,30.14,North,0,0.0,0.0,32,0.00,,---,0.00,VWS V14.01,2013-04-28 06:29:00,
2013-04-27 23:34:00,49.3,20.3,30.14,North,7,0.0,0.0,32,0.00,,---,0.00,VWS V14.01,2013-04-28 06:34:00,
2013-04-27 23:39:00,48.9,20.0,30.14,NNE,31,0.0,0.0,32,0.00,,---,0.00,VWS V14.01,2013-04-28 06:39:00,
2013-04-27 23:46:00,48.7,23.0,30.14,ESE,122,0.0,0.0,36,0.00,,---,0.00,VWS V14.01,2013-04-28 06:46:00,
2013-04-27 23:51:00,48.6,22.8,30.14,ESE,123,0.0,0.0,36,0.00,,---,0.00,VWS V14.01,2013-04-28 06:51:00,
2013-04-27 23:56:00,48.0,22.4,30.14,ESE,120,2.2,2.2,36,0.00,,---,0.00,VWS V14.01,2013-04-28 06:56:00,